Weather History for Kenosha, WI

Change the Weather History Date:

Friday, June 6, 2014

  Actual Average Record
Temperature  
Mean Temperature 65 °F -  
Max Temperature 77 °F 71 °F 95 °F (1952)
Min Temperature 53 °F 53 °F 37 °F (1998)
Growing Degree Days 15 (Base 50)    
Moisture  
Dew Point 46 °F    
Average Humidity 52    
Maximum Humidity 86    
Minimum Humidity 37    
Precipitation  
Precipitation 0.00 in - - ()
Sea Level Pressure  
Sea Level Pressure 29.99 in    
Wind  
Wind Speed 4 mph (SSE)    
Max Wind Speed 12 mph    
Max Gust Speed -    
Visibility 10 miles    
Events      
Averages and records for this station are not official NWS values.
T = Trace of Precipitation, MM = Missing Value Source: NWS Daily Summary

Daily Weather History Graph

Daily Weather History Graph

Search for Another Location

Airport:

Trip Planner

Search our weather history database for the weather conditions in past years. The results will help you decide how hot, cold, wet, or windy it might be!

Date:

Astronomy

Jun. 06, 2014 Rise Set
Actual Time 5:14 AM CDT 8:26 PM CDT
Civil Twilight 4:40 AM CDT 9:01 PM CDT
Nautical Twilight 3:55 AM CDT 9:45 PM CDT
Astronomical Twilight 3:02 AM CDT 10:39 PM CDT
Moon 1:37 PM CDT (6/6) 1:15 AM CDT (6/6)
Length of Visible Light 16h 20m
Length of Day
15h 11m
First Quarter, 58% of the Moon is Illuminated
Jun 6
First Quarter
Jun 12
Full
Jun 19
Last Quarter
Jun 27
New
Jul 5
First Quarter

Hourly Weather History & Observations

Time (CDT) Temp. Dew Point Humidity Pressure Visibility Wind Dir Wind Speed Gust Speed Precip Events Conditions
12:53 AM 57.0 °F 45.0 °F 64% 29.95 in 10.0 mi Calm Calm - N/A   Clear
1:53 AM 57.9 °F 44.1 °F 60% 29.94 in 10.0 mi Calm Calm - N/A   Clear
2:53 AM 54.0 °F 44.1 °F 69% 29.96 in 10.0 mi WNW 3.5 mph - N/A   Clear
3:53 AM 54.0 °F 46.0 °F 75% 29.98 in 10.0 mi West 3.5 mph - N/A   Scattered Clouds
4:53 AM 55.9 °F 48.0 °F 75% 29.99 in 10.0 mi Calm Calm - N/A   Partly Cloudy
5:53 AM 53.1 °F 48.9 °F 86% 30.01 in 10.0 mi Calm Calm - N/A   Partly Cloudy
6:53 AM 59.0 °F 48.9 °F 69% 30.01 in 10.0 mi SSW 3.5 mph - N/A   Clear
7:53 AM 63.0 °F 48.9 °F 60% 30.01 in 10.0 mi WSW 6.9 mph - N/A   Clear
8:53 AM 66.9 °F 48.0 °F 51% 30.01 in 10.0 mi WSW 3.5 mph - N/A   Clear
10:53 AM 73.9 °F 46.9 °F 38% 30.01 in 10.0 mi SSE 5.8 mph - N/A   Clear
11:53 AM 75.9 °F 48.0 °F 37% 30.00 in 10.0 mi Variable 4.6 mph - N/A   Clear
12:53 PM 77.0 °F 50.0 °F 39% 29.99 in 10.0 mi ESE 8.1 mph - N/A   Clear
1:53 PM 77.0 °F 48.9 °F 37% 29.99 in 10.0 mi East 11.5 mph - N/A   Clear
2:53 PM 75.9 °F 48.9 °F 38% 29.99 in 10.0 mi ESE 11.5 mph - N/A   Clear
4:53 PM 75.9 °F 48.0 °F 37% 29.99 in 10.0 mi SE 11.5 mph - N/A   Clear
5:53 PM 73.0 °F 46.0 °F 38% 29.99 in 10.0 mi ESE 9.2 mph - N/A   Clear
6:53 PM 71.1 °F 45.0 °F 39% 29.99 in 10.0 mi ESE 6.9 mph - N/A   Clear
7:53 PM 68.0 °F 42.1 °F 39% 29.98 in 10.0 mi ESE 5.8 mph - N/A   Clear
8:53 PM 64.0 °F 39.0 °F 40% 29.98 in 10.0 mi SE 4.6 mph - N/A   Clear
9:53 PM 62.1 °F 41.0 °F 46% 29.99 in 10.0 mi SSE 5.8 mph - N/A   Clear
10:53 PM 60.1 °F 43.0 °F 53% 30.02 in 10.0 mi South 3.5 mph - N/A   Clear
11:53 PM 55.9 °F 44.1 °F 64% 30.02 in 10.0 mi SSW 3.5 mph - N/A   Clear